Погода в Тьерпе

Швеция     60°20′36″N   17°30′53″E
темп.,
°C
ветер,
м/с
пор.,
м/с
влажн.,
%
обл.,
%
осадки,
мм/ч
давл.,
гПа
погр.,
м
16 июня, ср
ср1623:00+12всв2467100 0.0 101479
02:00+10ссв277597 0.0 1016153
05:00+10всв29798 0.0 1016361
08:00+14вюв355588 0.0 1016756
11:00+19ююз244024 0.0 10161734
14:00+22юз463391 0.0 10142056
17:00+21зюз462795 0.0 10151728
20:00+19юз384397 0.0 1015568
17 июня, чт
чт1723:00+14ююз3106378 0.0 1016221
02:00+11юз286699 0.0 1018166
05:00+12ююз2861100 0.0 1018216
08:00+18ююз474151 0.0 1018485
11:00+23ююз473452 0.0 10171133
14:00+26ююз58285 0.0 10171647
17:00+26ююз58260 0.0 10151888
20:00+21ю510515 0.0 1016602
18 июня, пт
пт1823:00+16ю413640 0.0 1016368
02:00+15ю41372100 0.0 1015337
05:00+15ю413795 0.0 1014350
08:00+22ююз510601 0.0 1013552
11:00+28ююз611465 0.0 10121387
14:00+29юз5114795 0.0 10112443
17:00+25ю5106577 0.3 1011810
20:00+21ю3118997 1.6 1012349
19 июня, сб
сб1923:00+18юз269750 0.3 1014135
02:00+12ссв4128932 0.4 1016434
05:00+11ссв41091100 0.0 1017409
08:00+14св368390 0.1 1017488
11:00+19всв336541 0.0 1015690
14:00+28юв274589 0.0 10121911
17:00+15с5109129 1.4 1011309
20:00+12всв379874 3.1 1011265
20 июня, вс
вс2023:00+12ссв1299100 1.6 101186
02:00+13с119996 1.9 101194
05:00+13св1299100 0.0 1011123
08:00+12с3698100 0.1 1013317
11:00+12ссв3494100 0.1 1015431
14:00+16с227368 0.1 1015657
17:00+20сз125786 0.0 10151278
20:00+17св346924 0.0 1016458